| time (UTC) | temp F | wind direction | speed MPH | gust MPH | rain 1hr in | rain 24hr in | rain mn in | humidity % | barometer mb |
| 20260903175913 | 74 | 256 | 5.0 | 10.0 | 0.00 | 0.00 | 0.00 | 57 | 1007.1 |
| 20260903173717 | 73 | 4 | 4.0 | 9.0 | 0.00 | 0.00 | 0.00 | 61 | 1007.1 |
| 20260903172722 | 72 | 221 | 3.0 | 9.0 | 0.00 | 0.00 | 0.00 | 65 | 1007.2 |
| 20260903171717 | 71 | 161 | 4.0 | 9.0 | 0.00 | 0.00 | 0.00 | 64 | 1007.2 |
| 20260903170709 | 71 | 225 | 4.0 | 9.0 | 0.00 | 0.00 | 0.00 | 65 | 1007.0 |
| 20260903165656 | 71 | 191 | 5.0 | 9.0 | 0.00 | 0.00 | 0.00 | 63 | 1007.0 |
| 20260903164709 | 73 | 195 | 3.0 | 7.0 | 0.00 | 0.00 | 0.00 | 56 | 1007.0 |
| 20260903163638 | 73 | 172 | 3.0 | 10.0 | 0.00 | 0.00 | 0.00 | 55 | 1006.8 |
| 20260903162647 | 74 | 176 | 3.0 | 10.0 | 0.00 | 0.00 | 0.00 | 55 | 1006.8 |
| 20260903161655 | 73 | 220 | 2.0 | 6.0 | 0.00 | 0.00 | 0.00 | 57 | 1006.9 |
| 20260903160702 | 72 | 163 | 2.0 | 5.0 | 0.00 | 0.00 | 0.00 | 59 | 1006.9 |
| 20260903154445 | 71 | 175 | 3.0 | 8.0 | 0.00 | 0.00 | 0.00 | 61 | 1006.9 |
| 20260903153429 | 71 | 186 | 2.0 | 6.0 | 0.00 | 0.00 | 0.00 | 64 | 1006.8 |
| 20260903152436 | 70 | 167 | 2.0 | 5.0 | 0.00 | 0.00 | 0.00 | 64 | 1006.9 |
| 20260903151421 | 70 | 162 | 3.0 | 7.0 | 0.00 | 0.00 | 0.00 | 67 | 1006.9 |
| 20260903150406 | 69 | 199 | 4.0 | 11.0 | 0.00 | 0.00 | 0.00 | 69 | 1006.6 |
| 20260903145431 | 69 | 210 | 6.0 | 11.0 | 0.00 | 0.00 | 0.00 | 70 | 1006.7 |
| 20260903144426 | 68 | 164 | 4.0 | 9.0 | 0.00 | 0.00 | 0.00 | 71 | 1006.6 |
| 20260903143407 | 68 | 221 | 6.0 | 11.0 | 0.00 | 0.00 | 0.00 | 72 | 1006.5 |
| 20260903142417 | 68 | 223 | 6.0 | 11.0 | 0.00 | 0.00 | 0.00 | 72 | 1006.5 |
| 20260903135145 | 67 | 215 | 5.0 | 9.0 | 0.00 | 0.00 | 0.00 | 71 | 1006.6 |
| 20260903134137 | 67 | 215 | 4.0 | 7.0 | 0.00 | 0.00 | 0.00 | 72 | 1006.5 |
| 20260903133147 | 66 | 242 | 3.0 | 5.0 | 0.00 | 0.00 | 0.00 | 72 | 1006.6 |
| 20260903132209 | 66 | 226 | 2.0 | 5.0 | 0.00 | 0.00 | 0.00 | 72 | 1006.6 |
| 20260903131158 | 66 | 4 | 3.0 | 5.0 | 0.00 | 0.00 | 0.00 | 71 | 1006.6 |
| 20260903130217 | 66 | 202 | 2.0 | 5.0 | 0.00 | 0.00 | 0.00 | 70 | 1006.4 |
| 20260903125206 | 66 | 184 | 2.0 | 6.0 | 0.00 | 0.00 | 0.00 | 68 | 1006.4 |
| 20260903124221 | 66 | 182 | 2.0 | 6.0 | 0.00 | 0.00 | 0.00 | 68 | 1006.3 |
| 20260903123150 | 66 | 187 | 2.0 | 4.0 | 0.00 | 0.00 | 0.00 | 66 | 1006.2 |
| 20260903122141 | 66 | 185 | 2.0 | 6.0 | 0.00 | 0.00 | 0.00 | 64 | 1006.1 |
| 20260903121131 | 67 | 190 | 3.0 | 6.0 | 0.00 | 0.00 | 0.00 | 64 | 1006.0 |
| 20260903120146 | 67 | 200 | 3.0 | 6.0 | 0.00 | 0.00 | 0.00 | 63 | 1005.7 |
| 20260903115121 | 67 | 210 | 3.0 | 7.0 | 0.00 | 0.00 | 0.00 | 62 | 1005.5 |
| 20260903114132 | 67 | 184 | 4.0 | 7.0 | 0.00 | 0.00 | 0.00 | 62 | 1005.4 |
| 20260903113146 | 67 | 215 | 3.0 | 8.0 | 0.00 | 0.00 | 0.00 | 62 | 1005.2 |
| 20260903112158 | 67 | 221 | 5.0 | 8.0 | 0.00 | 0.00 | 0.00 | 61 | 1005.1 |
| 20260903111204 | 67 | 210 | 3.0 | 7.0 | 0.00 | 0.00 | 0.00 | 61 | 1005.0 |
| 20260903105017 | 68 | 225 | 3.0 | 5.0 | 0.00 | 0.00 | 0.00 | 60 | 1005.2 |
| 20260903104011 | 68 | 209 | 3.0 | 8.0 | 0.00 | 0.00 | 0.00 | 60 | 1005.2 |
| 20260903101854 | 69 | 206 | 5.0 | 10.0 | 0.00 | 0.00 | 0.00 | 59 | 1005.4 |
| 20260903094602 | 69 | 194 | 3.0 | 7.0 | 0.00 | 0.00 | 0.00 | 59 | 1005.6 |
| 20260903093558 | 69 | 185 | 4.0 | 10.0 | 0.00 | 0.00 | 0.00 | 58 | 1005.5 |
| 20260903092554 | 70 | 186 | 5.0 | 10.0 | 0.00 | 0.00 | 0.00 | 57 | 1005.5 |
| 20260903091531 | 70 | 202 | 4.0 | 9.0 | 0.00 | 0.00 | 0.00 | 57 | 1005.5 |
| 20260903090527 | 70 | 173 | 4.0 | 8.0 | 0.00 | 0.00 | 0.00 | 56 | 1005.6 |
| 20260903085512 | 70 | 161 | 3.0 | 5.0 | 0.00 | 0.00 | 0.00 | 55 | 1005.7 |
| 20260903084527 | 70 | 154 | 3.0 | 8.0 | 0.00 | 0.00 | 0.00 | 54 | 1005.5 |
| 20260903083528 | 71 | 148 | 4.0 | 8.0 | 0.00 | 0.00 | 0.00 | 54 | 1005.5 |
| 20260903082510 | 71 | 196 | 4.0 | 8.0 | 0.00 | 0.00 | 0.00 | 54 | 1005.6 |
| 20260903081450 | 71 | 179 | 4.0 | 7.0 | 0.00 | 0.00 | 0.00 | 54 | 1005.9 |
| 20260903080434 | 71 | 194 | 3.0 | 7.0 | 0.00 | 0.00 | 0.00 | 53 | 1006.0 |
| 20260903075422 | 71 | 225 | 3.0 | 6.0 | 0.00 | 0.00 | 0.00 | 53 | 1006.1 |
| 20260903074359 | 71 | 207 | 3.0 | 6.0 | 0.00 | 0.00 | 0.00 | 52 | 1005.9 |
| 20260903073412 | 71 | 204 | 3.0 | 6.0 | 0.00 | 0.00 | 0.00 | 52 | 1006.0 |
| 20260903072437 | 71 | 183 | 3.0 | 6.0 | 0.00 | 0.00 | 0.00 | 51 | 1006.0 |
| 20260903071423 | 71 | 210 | 3.0 | 6.0 | 0.00 | 0.00 | 0.00 | 51 | 1006.0 |
| 20260903070447 | 71 | 215 | 3.0 | 6.0 | 0.00 | 0.00 | 0.00 | 50 | 1006.1 |
| 20260903065436 | 71 | 183 | 4.0 | 9.0 | 0.00 | 0.00 | 0.00 | 50 | 1006.1 |
| 20260903064411 | 72 | 202 | 5.0 | 9.0 | 0.00 | 0.00 | 0.00 | 50 | 1006.0 |
| 20260903063404 | 72 | 212 | 4.0 | 8.0 | 0.00 | 0.00 | 0.00 | 50 | 1006.1 |
| 20260903062343 | 72 | 172 | 4.0 | 8.0 | 0.00 | 0.00 | 0.00 | 49 | 1006.2 |
| 20260903061312 | 72 | 182 | 3.0 | 8.0 | 0.00 | 0.00 | 0.00 | 48 | 1006.3 |
| 20260903060247 | 72 | 173 | 3.0 | 7.0 | 0.00 | 0.00 | 0.00 | 46 | 1006.3 |
| 20260903054121 | 74 | 192 | 3.0 | 8.0 | 0.00 | 0.00 | 0.00 | 44 | 1006.3 |
| 20260903053103 | 74 | 165 | 4.0 | 8.0 | 0.00 | 0.00 | 0.00 | 42 | 1006.3 |
| 20260903052050 | 74 | 169 | 3.0 | 6.0 | 0.00 | 0.00 | 0.00 | 41 | 1006.3 |
| 20260903051022 | 74 | 163 | 4.0 | 8.0 | 0.00 | 0.00 | 0.00 | 41 | 1006.3 |
| 20260903050044 | 74 | 163 | 4.0 | 8.0 | 0.00 | 0.00 | 0.00 | 41 | 1006.3 |
| 20260903045105 | 75 | 164 | 3.0 | 6.0 | 0.00 | 0.00 | 0.00 | 41 | 1006.4 |
| 20260903044104 | 75 | 167 | 4.0 | 9.0 | 0.00 | 0.00 | 0.00 | 41 | 1006.2 |
| 20260903043030 | 76 | 198 | 4.0 | 9.0 | 0.00 | 0.00 | 0.00 | 40 | 1006.2 |
| 20260903042049 | 76 | 190 | 4.0 | 12.0 | 0.00 | 0.00 | 0.00 | 40 | 1006.2 |
| 20260903041112 | 77 | 212 | 5.0 | 12.0 | 0.00 | 0.00 | 0.00 | 39 | 1006.2 |
| 20260903040047 | 77 | 4 | 6.0 | 11.0 | 0.00 | 0.00 | 0.00 | 39 | 1006.1 |
| 20260903035047 | 77 | 196 | 6.0 | 14.0 | 0.00 | 0.00 | 0.00 | 38 | 1006.2 |
| 20260903032958 | 78 | 4 | 6.0 | 11.0 | 0.00 | 0.00 | 0.00 | 38 | 1006.1 |
| 20260903030818 | 78 | 203 | 6.0 | 11.0 | 0.00 | 0.00 | 0.00 | 38 | 1005.9 |
| 20260903024622 | 78 | 177 | 5.0 | 14.0 | 0.00 | 0.00 | 0.00 | 37 | 1005.7 |
| 20260903023610 | 79 | 148 | 6.0 | 14.0 | 0.00 | 0.00 | 0.00 | 36 | 1005.6 |
| 20260903022545 | 79 | 4 | 6.0 | 12.0 | 0.00 | 0.00 | 0.00 | 32 | 1005.3 |
| 20260903020345 | 79 | 157 | 5.0 | 11.0 | 0.00 | 0.00 | 0.00 | 31 | 1005.3 |
| 20260903015335 | 80 | 177 | 5.0 | 11.0 | 0.00 | 0.00 | 0.00 | 30 | 1005.2 |
| 20260903013157 | 80 | 160 | 8.0 | 14.0 | 0.00 | 0.00 | 0.00 | 29 | 1005.0 |
| 20260903012153 | 81 | 166 | 5.0 | 11.0 | 0.00 | 0.00 | 0.00 | 29 | 1004.9 |
| 20260903011134 | 81 | 195 | 8.0 | 15.0 | 0.00 | 0.00 | 0.00 | 29 | 1004.9 |
| 20260903010151 | 81 | 154 | 8.0 | 15.0 | 0.00 | 0.00 | 0.00 | 29 | 1004.9 |
| 20260903005215 | 81 | 157 | 6.0 | 14.0 | 0.00 | 0.00 | 0.00 | 29 | 1004.8 |
| 20260903004152 | 82 | 144 | 7.0 | 14.0 | 0.00 | 0.00 | 0.00 | 28 | 1004.9 |
| 20260903003144 | 84 | 179 | 9.0 | 17.0 | 0.00 | 0.00 | 0.00 | 27 | 1004.8 |
| 20260903002120 | 85 | 200 | 8.0 | 17.0 | 0.00 | 0.00 | 0.00 | 27 | 1004.7 |
| 20260903001141 | 85 | 176 | 6.0 | 16.0 | 0.00 | 0.00 | 0.00 | 27 | 1004.7 |
| 20260903000110 | 85 | 175 | 8.0 | 16.0 | 0.00 | 0.00 | 0.00 | 26 | 1004.8 |
| 20260902233926 | 87 | 148 | 6.0 | 12.0 | 0.00 | 0.00 | 0.00 | 24 | 1004.9 |
| 20260902232852 | 86 | 125 | 7.0 | 15.0 | 0.00 | 0.00 | 0.00 | 23 | 1005.0 |
| 20260902231822 | 87 | 162 | 8.0 | 15.0 | 0.00 | 0.00 | 0.00 | 23 | 1005.0 |
| 20260902230751 | 88 | 4 | 6.0 | 14.0 | 0.00 | 0.00 | 0.00 | 23 | 1005.1 |
| 20260902225746 | 88 | 175 | 5.0 | 16.0 | 0.00 | 0.00 | 0.00 | 23 | 1005.2 |
| 20260902224737 | 87 | 200 | 6.0 | 17.0 | 0.00 | 0.00 | 0.00 | 24 | 1005.4 |
| 20260902223716 | 86 | 198 | 9.0 | 17.0 | 0.00 | 0.00 | 0.00 | 24 | 1005.4 |
| 20260902222655 | 88 | 169 | 7.0 | 17.0 | 0.00 | 0.00 | 0.00 | 23 | 1005.4 |
| 20260902221652 | 88 | 165 | 7.0 | 17.0 | 0.00 | 0.00 | 0.00 | 24 | 1005.6 |
| 20260902220630 | 87 | 127 | 7.0 | 13.0 | 0.00 | 0.00 | 0.00 | 24 | 1005.7 |
| 20260902215623 | 87 | 160 | 7.0 | 16.0 | 0.00 | 0.00 | 0.00 | 25 | 1005.7 |
| 20260902214612 | 88 | 146 | 9.0 | 16.0 | 0.00 | 0.00 | 0.00 | 24 | 1005.8 |
| 20260902213611 | 88 | 148 | 2.0 | 12.0 | 0.00 | 0.00 | 0.00 | 25 | 1006.0 |
| 20260902212549 | 87 | 193 | 6.0 | 18.0 | 0.00 | 0.00 | 0.00 | 26 | 1006.1 |
| 20260902210457 | 87 | 167 | 6.0 | 12.0 | 0.00 | 0.00 | 0.00 | 25 | 1006.5 |
| 20260902205430 | 86 | 210 | 4.0 | 15.0 | 0.00 | 0.00 | 0.00 | 27 | 1006.7 |
| 20260902204423 | 85 | 198 | 6.0 | 15.0 | 0.00 | 0.00 | 0.00 | 26 | 1006.9 |
| 20260902203431 | 86 | 192 | 7.0 | 13.0 | 0.00 | 0.00 | 0.00 | 26 | 1007.1 |
| 20260902202449 | 88 | 176 | 6.0 | 13.0 | 0.00 | 0.00 | 0.00 | 24 | 1007.3 |
| 20260902201447 | 87 | 197 | 5.0 | 15.0 | 0.00 | 0.00 | 0.00 | 26 | 1007.5 |
| 20260902195350 | 86 | 115 | 7.0 | 13.0 | 0.00 | 0.00 | 0.00 | 26 | 1007.9 |
| 20260902194342 | 85 | 223 | 6.0 | 12.0 | 0.00 | 0.00 | 0.00 | 25 | 1008.0 |
| 20260902193326 | 85 | 139 | 5.0 | 13.0 | 0.00 | 0.00 | 0.00 | 25 | 1008.3 |
| 20260902192347 | 85 | 117 | 6.0 | 17.0 | 0.00 | 0.00 | 0.00 | 24 | 1008.5 |
| 20260902191409 | 84 | 250 | 7.0 | 17.0 | 0.00 | 0.00 | 0.00 | 24 | 1008.5 |
| 20260902190434 | 86 | 173 | 7.0 | 14.0 | 0.00 | 0.00 | 0.00 | 23 | 1008.6 |
| 20260902185457 | 84 | 140 | 7.0 | 16.0 | 0.00 | 0.00 | 0.00 | 24 | 1008.7 |
| 20260902184427 | 85 | 4 | 7.0 | 16.0 | 0.00 | 0.00 | 0.00 | 24 | 1009.0 |
| 20260902183418 | 84 | 198 | 6.0 | 12.0 | 0.00 | 0.00 | 0.00 | 25 | 1009.0 |
| 20260902182417 | 83 | 219 | 8.0 | 14.0 | 0.00 | 0.00 | 0.00 | 25 | 1009.1 |
| 20260902181438 | 84 | 156 | 7.0 | 14.0 | 0.00 | 0.00 | 0.00 | 24 | 1009.1 |